Data No.,UTC Date,UTC Time,Latitude,Longitude,Course(deg),Temp(degC),Sal(psu)
90,2014/6/6,7:09:00,00-12.5400N,118-00.0100E,60,30.56,33.1986
91,2014/6/6,7:10:00,00-12.6400N,118-00.1800E,60,30.549,33.2163
92,2014/6/6,7:11:00,00-12.7300N,118-00.3400E,61,30.502,33.2228
93,2014/6/6,7:12:00,00-12.8300N,118-00.5200E,61,30.47,33.2255
94,2014/6/6,7:13:00,00-12.9200N,118-00.6900E,61,30.463,33.1902
95,2014/6/6,7:14:00,00-13.0200N,118-00.8600E,60,30.479,33.1764
96,2014/6/6,7:15:00,00-13.1100N,118-01.0300E,61,30.47,33.18
97,2014/6/6,7:16:00,00-13.2100N,118-01.2100E,61,30.46,33.1843
98,2014/6/6,7:17:00,00-13.3000N,118-01.3700E,61,30.448,33.1876
99,2014/6/6,7:18:00,00-13.4000N,118-01.5500E,61,30.445,33.1871
100,2014/6/6,7:19:00,00-13.5000N,118-01.7300E,61,30.433,33.1891
101,2014/6/6,7:20:00,00-13.5900N,118-01.9000E,60,30.456,33.1989
102,2014/6/6,7:21:00,00-13.6900N,118-02.0700E,60,30.456,33.2023
103,2014/6/6,7:22:00,00-13.7900N,118-02.2500E,61,30.448,33.2135
104,2014/6/6,7:23:00,00-13.8800N,118-02.4200E,61,30.476,33.2138
105,2014/6/6,7:24:00,00-13.9800N,118-02.6000E,61,30.501,33.2085
106,2014/6/6,7:25:00,00-14.0700N,118-02.7700E,61,30.507,33.2138
107,2014/6/6,7:26:00,00-14.1600N,118-02.9400E,62,30.501,33.2209
108,2014/6/6,7:27:00,00-14.2500N,118-03.1200E,63,30.498,33.219
109,2014/6/6,7:28:00,00-14.3400N,118-03.2900E,62,30.517,33.214
110,2014/6/6,7:29:00,00-14.4300N,118-03.4700E,62,30.518,33.2128
111,2014/6/6,7:30:00,00-14.5200N,118-03.6400E,63,30.479,33.2225
112,2014/6/6,7:31:00,00-14.6100N,118-03.8200E,63,30.468,33.2114
113,2014/6/6,7:32:00,00-14.7000N,118-03.9900E,63,30.471,33.2028
114,2014/6/6,7:33:00,00-14.7800N,118-04.1700E,63,30.467,33.2012
115,2014/6/6,7:34:00,00-14.8700N,118-04.3500E,64,30.47,33.2053
116,2014/6/6,7:35:00,00-14.9600N,118-04.5200E,64,30.492,33.2082
117,2014/6/6,7:36:00,00-15.0400N,118-04.7000E,64,30.496,33.2053
118,2014/6/6,7:37:00,00-15.1300N,118-04.8800E,63,30.5,33.21
119,2014/6/6,7:38:00,00-15.2100N,118-05.0500E,63,30.492,33.2148
120,2014/6/6,7:39:00,00-15.3000N,118-05.2200E,63,30.479,33.2137
121,2014/6/6,7:40:00,00-15.3900N,118-05.4000E,63,30.471,33.2057
122,2014/6/6,7:41:00,00-15.4700N,118-05.5700E,64,30.453,33.1978
123,2014/6/6,7:42:00,00-15.5600N,118-05.7500E,63,30.431,33.189
124,2014/6/6,7:43:00,00-15.6500N,118-05.9300E,63,30.414,33.1698
125,2014/6/6,7:44:00,00-15.7400N,118-06.1100E,63,30.412,33.1681
126,2014/6/6,7:45:00,00-15.8300N,118-06.2800E,64,30.416,33.1772
127,2014/6/6,7:46:00,00-15.9100N,118-06.4600E,63,30.408,33.1862
128,2014/6/6,7:47:00,00-16.0000N,118-06.6300E,63,30.442,33.1823
129,2014/6/6,7:48:00,00-16.0900N,118-06.8000E,63,30.447,33.1706
130,2014/6/6,7:49:00,00-16.1700N,118-06.9800E,63,30.447,33.1909
131,2014/6/6,7:50:00,00-16.2600N,118-07.1500E,63,30.448,33.2022
132,2014/6/6,7:51:00,00-16.3400N,118-07.3200E,63,30.461,33.2021
133,2014/6/6,7:52:00,00-16.4300N,118-07.4900E,62,30.459,33.2042
134,2014/6/6,7:53:00,00-16.5300N,118-07.6800E,62,30.488,33.2045
135,2014/6/6,7:54:00,00-16.6100N,118-07.8300E,61,30.485,33.2212
136,2014/6/6,7:55:00,00-16.7000N,118-08.0100E,61,30.479,33.2358
137,2014/6/6,7:56:00,00-16.8000N,118-08.1800E,61,30.48,33.241
138,2014/6/6,7:57:00,00-16.8900N,118-08.3500E,61,30.493,33.2439
139,2014/6/6,7:58:00,00-16.9800N,118-08.5100E,61,30.497,33.2472
140,2014/6/6,7:59:00,00-17.0700N,118-08.6900E,61,30.504,33.2529
141,2014/6/6,8:00:00,00-17.1700N,118-08.8600E,60,30.502,33.2539
142,2014/6/6,8:01:00,00-17.2600N,118-09.0300E,60,30.509,33.2513
143,2014/6/6,8:02:00,00-17.3600N,118-09.2000E,61,30.501,33.2531
144,2014/6/6,8:03:00,00-17.4500N,118-09.3700E,60,30.504,33.2549
145,2014/6/6,8:04:00,00-17.5500N,118-09.5400E,60,30.505,33.2545
146,2014/6/6,8:05:00,00-17.6400N,118-09.7100E,60,30.497,33.2531
147,2014/6/6,8:06:00,00-17.7400N,118-09.8800E,60,30.504,33.2502
148,2014/6/6,8:07:00,00-17.8400N,118-10.0500E,59,30.5,33.2487
149,2014/6/6,8:08:00,00-17.9400N,118-10.2300E,60,30.503,33.246
150,2014/6/6,8:09:00,00-18.0400N,118-10.3900E,59,30.508,33.2428
151,2014/6/6,8:10:00,00-18.1300N,118-10.5600E,60,30.488,33.2368
152,2014/6/6,8:11:00,00-18.2300N,118-10.7300E,61,30.529,33.2342
153,2014/6/6,8:12:00,00-18.3300N,118-10.9000E,60,30.542,33.2364
154,2014/6/6,8:13:00,00-18.4200N,118-11.0700E,61,30.5,33.2363
155,2014/6/6,8:14:00,00-18.5100N,118-11.2400E,62,30.477,33.2296
156,2014/6/6,8:15:00,00-18.6000N,118-11.4100E,62,30.477,33.2221
157,2014/6/6,8:16:00,00-18.6900N,118-11.5800E,63,30.468,33.2117
158,2014/6/6,8:17:00,00-18.7700N,118-11.7500E,62,30.494,33.2011
159,2014/6/6,8:18:00,00-18.8600N,118-11.9300E,62,30.523,33.2
160,2014/6/6,8:19:00,00-18.9500N,118-12.1000E,62,30.521,33.2117
161,2014/6/6,8:20:00,00-19.0400N,118-12.2700E,63,30.518,33.2205
162,2014/6/6,8:21:00,00-19.1200N,118-12.4400E,63,30.51,33.2414
163,2014/6/6,8:22:00,00-19.2100N,118-12.6200E,64,30.494,33.2513
164,2014/6/6,8:23:00,00-19.2900N,118-12.7900E,64,30.467,33.2273
165,2014/6/6,8:24:00,00-19.3800N,118-12.9700E,64,30.455,33.2162
166,2014/6/6,8:25:00,00-19.4600N,118-13.1400E,63,30.45,33.2042
167,2014/6/6,8:26:00,00-19.5500N,118-13.3200E,63,30.492,33.2017
168,2014/6/6,8:27:00,00-19.6400N,118-13.4900E,63,30.529,33.2101
169,2014/6/6,8:28:00,00-19.7300N,118-13.6700E,63,30.542,33.2412
170,2014/6/6,8:29:00,00-19.8200N,118-13.8500E,62,30.557,33.2503
171,2014/6/6,8:30:00,00-19.9100N,118-14.0200E,62,30.559,33.2549
172,2014/6/6,8:31:00,00-20.0000N,118-14.1900E,62,30.543,33.2614
173,2014/6/6,8:32:00,00-20.0900N,118-14.3800E,63,30.547,33.2649
174,2014/6/6,8:33:00,00-20.1800N,118-14.5500E,62,30.542,33.2652
175,2014/6/6,8:34:00,00-20.2700N,118-14.7200E,63,30.532,33.26
176,2014/6/6,8:35:00,00-20.3500N,118-14.9000E,63,30.554,33.2623
177,2014/6/6,8:36:00,00-20.4400N,118-15.0700E,63,30.564,33.2647
178,2014/6/6,8:37:00,00-20.5300N,118-15.2400E,63,30.554,33.2675
179,2014/6/6,8:38:00,00-20.6200N,118-15.4100E,63,30.532,33.2627
180,2014/6/6,8:39:00,00-20.7100N,118-15.5900E,62,30.517,33.2568
181,2014/6/6,8:40:00,00-20.7900N,118-15.7600E,62,30.553,33.2456
182,2014/6/6,8:41:00,00-20.8800N,118-15.9300E,62,30.563,33.2365
183,2014/6/6,8:42:00,00-20.9700N,118-16.0900E,62,30.573,33.2405
184,2014/6/6,8:43:00,00-21.0600N,118-16.2700E,62,30.573,33.2427
185,2014/6/6,8:44:00,00-21.1500N,118-16.4400E,63,30.568,33.2393
186,2014/6/6,8:45:00,00-21.2400N,118-16.6200E,62,30.571,33.2363
187,2014/6/6,8:46:00,00-21.3300N,118-16.7900E,63,30.574,33.233
188,2014/6/6,8:47:00,00-21.4100N,118-16.9600E,63,30.575,33.2304
189,2014/6/6,8:48:00,00-21.5000N,118-17.1400E,63,30.57,33.2286
190,2014/6/6,8:49:00,00-21.5900N,118-17.3100E,63,30.565,33.226
191,2014/6/6,8:50:00,00-21.6800N,118-17.4900E,63,30.573,33.2248
192,2014/6/6,8:51:00,00-21.7600N,118-17.6600E,62,30.579,33.2228
193,2014/6/6,8:52:00,00-21.8500N,118-17.8400E,63,30.584,33.2206
194,2014/6/6,8:53:00,00-21.9400N,118-18.0100E,62,30.59,33.2175
195,2014/6/6,8:54:00,00-22.0300N,118-18.1800E,62,30.599,33.216
196,2014/6/6,8:55:00,00-22.1300N,118-18.3700E,62,30.594,33.2169
197,2014/6/6,8:56:00,00-22.2100N,118-18.5400E,62,30.6,33.2171
198,2014/6/6,8:57:00,00-22.3000N,118-18.7100E,63,30.611,33.2172
199,2014/6/6,8:58:00,00-22.3900N,118-18.8900E,63,30.615,33.2193
200,2014/6/6,8:59:00,00-22.4800N,118-19.0600E,62,30.615,33.2296
201,2014/6/6,9:00:00,00-22.5700N,118-19.2400E,63,30.608,33.2301
202,2014/6/6,9:01:00,00-22.6600N,118-19.4100E,62,30.639,33.2251
203,2014/6/6,9:02:00,00-22.7500N,118-19.5900E,63,30.657,33.2198
204,2014/6/6,9:03:00,00-22.8400N,118-19.7600E,63,30.653,33.2305
205,2014/6/6,9:04:00,00-22.9200N,118-19.9300E,63,30.623,33.2397
206,2014/6/6,9:05:00,00-23.0100N,118-20.1100E,63,30.606,33.2378
207,2014/6/6,9:06:00,00-23.0900N,118-20.2800E,64,30.616,33.2197
208,2014/6/6,9:07:00,00-23.1800N,118-20.4600E,64,30.599,33.2161
209,2014/6/6,9:08:00,00-23.2600N,118-20.6300E,64,30.575,33.2088
210,2014/6/6,9:09:00,00-23.3500N,118-20.8100E,64,30.579,33.2033
211,2014/6/6,9:10:00,00-23.4300N,118-20.9800E,63,30.605,33.1992
212,2014/6/6,9:11:00,00-23.5200N,118-21.1600E,63,30.603,33.1998
213,2014/6/6,9:12:00,00-23.6100N,118-21.3300E,64,30.599,33.201
214,2014/6/6,9:13:00,00-23.6900N,118-21.5100E,63,30.619,33.1978
215,2014/6/6,9:14:00,00-23.7800N,118-21.6800E,64,30.647,33.202
216,2014/6/6,9:15:00,00-23.8700N,118-21.8600E,63,30.647,33.2146
217,2014/6/6,9:16:00,00-23.9500N,118-22.0300E,63,30.66,33.2186
218,2014/6/6,9:17:00,00-24.0400N,118-22.2100E,63,30.682,33.2124
219,2014/6/6,9:18:00,00-24.1300N,118-22.3800E,63,30.671,33.2259
220,2014/6/6,9:19:00,00-24.2200N,118-22.5700E,62,30.667,33.221
221,2014/6/6,9:20:00,00-24.3100N,118-22.7400E,62,30.649,33.2145
222,2014/6/6,9:21:00,00-24.4000N,118-22.9200E,62,30.639,33.2019
223,2014/6/6,9:22:00,00-24.4900N,118-23.0900E,62,30.637,33.1828
224,2014/6/6,9:23:00,00-24.5800N,118-23.2600E,62,30.634,33.1697
225,2014/6/6,9:24:00,00-24.6700N,118-23.4300E,62,30.637,33.1721
226,2014/6/6,9:25:00,00-24.7600N,118-23.6000E,62,30.614,33.174
227,2014/6/6,9:26:00,00-24.8500N,118-23.7700E,63,30.618,33.1763
228,2014/6/6,9:27:00,00-24.9400N,118-23.9500E,62,30.614,33.1749
229,2014/6/6,9:28:00,00-25.0300N,118-24.1200E,63,30.613,33.1791
230,2014/6/6,9:29:00,00-25.1200N,118-24.2900E,63,30.636,33.1668
231,2014/6/6,9:30:00,00-25.2000N,118-24.4600E,63,30.67,33.1659
232,2014/6/6,9:31:00,00-25.2900N,118-24.6300E,63,30.669,33.174
233,2014/6/6,9:32:00,00-25.3700N,118-24.8100E,63,30.734,33.1818
234,2014/6/6,9:33:00,00-25.4600N,118-24.9800E,64,30.792,33.1852
235,2014/6/6,9:34:00,00-25.5400N,118-25.1600E,63,30.793,33.1698
236,2014/6/6,9:35:00,00-25.6300N,118-25.3300E,63,30.712,33.1635
237,2014/6/6,9:36:00,00-25.7200N,118-25.5100E,63,30.692,33.1342
238,2014/6/6,9:37:00,00-25.8000N,118-25.6800E,63,30.703,33.1258
239,2014/6/6,9:38:00,00-25.8900N,118-25.8500E,64,30.66,33.1197
240,2014/6/6,9:39:00,00-25.9700N,118-26.0300E,64,30.665,33.0945
241,2014/6/6,9:40:00,00-26.0600N,118-26.2000E,64,30.698,33.1044
242,2014/6/6,9:41:00,00-26.1400N,118-26.3800E,64,30.702,33.0943
243,2014/6/6,9:42:00,00-26.2300N,118-26.5500E,63,30.693,33.0863
244,2014/6/6,9:43:00,00-26.3100N,118-26.7300E,63,30.694,33.0893
245,2014/6/6,9:44:00,00-26.4000N,118-26.9100E,63,30.683,33.1124
246,2014/6/6,9:45:00,00-26.4900N,118-27.0800E,63,30.679,33.1299
247,2014/6/6,9:46:00,00-26.5800N,118-27.2600E,64,30.665,33.1264
248,2014/6/6,9:47:00,00-26.6600N,118-27.4400E,64,30.672,33.1364
249,2014/6/6,9:48:00,00-26.7500N,118-27.6100E,64,30.667,33.1426
250,2014/6/6,9:49:00,00-26.8300N,118-27.7900E,64,30.644,33.1156
251,2014/6/6,9:50:00,00-26.9200N,118-27.9600E,64,30.636,33.1244
252,2014/6/6,9:51:00,00-27.0100N,118-28.1400E,63,30.661,33.1474
253,2014/6/6,9:52:00,00-27.0900N,118-28.3100E,64,30.659,33.1385
254,2014/6/6,9:53:00,00-27.1700N,118-28.4900E,63,30.664,33.1172
255,2014/6/6,9:54:00,00-27.2600N,118-28.6600E,64,30.656,33.1196
256,2014/6/6,9:55:00,00-27.3500N,118-28.8400E,63,30.667,33.116
257,2014/6/6,9:56:00,00-27.4300N,118-29.0100E,64,30.655,33.1138
258,2014/6/6,9:57:00,00-27.5200N,118-29.1900E,63,30.654,33.1052
259,2014/6/6,9:58:00,00-27.6000N,118-29.3600E,64,30.64,33.1066
260,2014/6/6,9:59:00,00-27.6900N,118-29.5400E,64,30.633,33.1026
261,2014/6/6,10:00:00,00-27.7700N,118-29.7100E,63,30.629,33.1043
262,2014/6/6,10:01:00,00-27.8600N,118-29.8800E,63,30.632,33.1034
263,2014/6/6,10:02:00,00-27.9500N,118-30.0600E,63,30.63,33.1077
264,2014/6/6,10:03:00,00-28.0300N,118-30.2300E,63,30.64,33.1123
265,2014/6/6,10:04:00,00-28.1200N,118-30.4100E,63,30.636,33.109
266,2014/6/6,10:05:00,00-28.2100N,118-30.5800E,64,30.619,33.1086
267,2014/6/6,10:06:00,00-28.2900N,118-30.7500E,63,30.621,33.1206
268,2014/6/6,10:07:00,00-28.3800N,118-30.9300E,64,30.603,33.1253
269,2014/6/6,10:08:00,00-28.4700N,118-31.1200E,64,30.619,33.131
270,2014/6/6,10:09:00,00-28.5500N,118-31.2900E,64,30.597,33.1393
271,2014/6/6,10:10:00,00-28.6400N,118-31.4700E,64,30.601,33.1349
272,2014/6/6,10:11:00,00-28.7200N,118-31.6400E,64,30.6,33.1457
273,2014/6/6,10:12:00,00-28.8000N,118-31.8100E,64,30.582,33.1428
274,2014/6/6,10:13:00,00-28.8900N,118-31.9900E,64,30.582,33.1507
275,2014/6/6,10:14:00,00-28.9700N,118-32.1600E,64,30.602,33.151
276,2014/6/6,10:15:00,00-29.0600N,118-32.3400E,64,30.605,33.145
277,2014/6/6,10:16:00,00-29.1400N,118-32.5100E,64,30.612,33.1366
278,2014/6/6,10:17:00,00-29.2300N,118-32.6900E,63,30.613,33.1414
279,2014/6/6,10:18:00,00-29.3100N,118-32.8600E,64,30.6,33.1372
280,2014/6/6,10:19:00,00-29.4000N,118-33.0400E,64,30.603,33.1362
281,2014/6/6,10:20:00,00-29.4900N,118-33.2100E,63,30.6,33.1439
282,2014/6/6,10:21:00,00-29.5700N,118-33.3900E,64,30.599,33.1325
283,2014/6/6,10:22:00,00-29.6600N,118-33.5600E,64,30.594,33.1294
284,2014/6/6,10:23:00,00-29.7400N,118-33.7400E,63,30.588,33.1203
285,2014/6/6,10:24:00,00-29.8300N,118-33.9200E,64,30.589,33.1115
286,2014/6/6,10:25:00,00-29.9200N,118-34.0900E,64,30.592,33.1068
287,2014/6/6,10:26:00,00-30.0000N,118-34.2700E,63,30.607,33.1127
288,2014/6/6,10:27:00,00-30.1000N,118-34.4700E,63,30.615,33.1122
289,2014/6/6,10:28:00,00-30.1800N,118-34.6300E,63,30.614,33.1199
290,2014/6/6,10:29:00,00-30.2700N,118-34.8100E,64,30.605,33.1269
291,2014/6/6,10:30:00,00-30.3600N,118-34.9900E,63,30.596,33.1295
292,2014/6/6,10:31:00,00-30.4500N,118-35.1600E,63,30.598,33.1299
293,2014/6/6,10:32:00,00-30.5400N,118-35.3400E,63,30.583,33.125
294,2014/6/6,10:33:00,00-30.6300N,118-35.5300E,63,30.585,33.1322
295,2014/6/6,10:34:00,00-30.7200N,118-35.7100E,64,30.561,33.1248
296,2014/6/6,10:35:00,00-30.8100N,118-35.8900E,63,30.558,33.1344
297,2014/6/6,10:36:00,00-30.8900N,118-36.0700E,64,30.517,33.1387
298,2014/6/6,10:37:00,00-30.9800N,118-36.2500E,63,30.543,33.1397
299,2014/6/6,10:38:00,00-31.0700N,118-36.4300E,64,30.521,33.1556
300,2014/6/6,10:39:00,00-31.1600N,118-36.6100E,63,30.524,33.1432
301,2014/6/6,10:40:00,00-31.2400N,118-36.7900E,64,30.481,33.1713
302,2014/6/6,10:41:00,00-31.3300N,118-36.9700E,64,30.465,33.1859
303,2014/6/6,10:42:00,00-31.4200N,118-37.1500E,64,30.426,33.2147
304,2014/6/6,10:43:00,00-31.5000N,118-37.3300E,64,30.462,33.2367
305,2014/6/6,10:44:00,00-31.5900N,118-37.5100E,64,30.473,33.2546
306,2014/6/6,10:45:00,00-31.6800N,118-37.6900E,64,30.514,33.2385
307,2014/6/6,10:46:00,00-31.7600N,118-37.8700E,65,30.445,33.2235
308,2014/6/6,10:47:00,00-31.8500N,118-38.0600E,64,30.426,33.2207
309,2014/6/6,10:48:00,00-31.9400N,118-38.2400E,64,30.439,33.2586
310,2014/6/6,10:49:00,00-32.0200N,118-38.4200E,64,30.484,33.2688
311,2014/6/6,10:50:00,00-32.1100N,118-38.6000E,65,30.506,33.2481
312,2014/6/6,10:51:00,00-32.2000N,118-38.7800E,64,30.57,33.2303
313,2014/6/6,10:52:00,00-32.2800N,118-38.9600E,65,30.564,33.1902
314,2014/6/6,10:53:00,00-32.3600N,118-39.1400E,64,30.579,33.1597
315,2014/6/6,10:54:00,00-32.4500N,118-39.3300E,65,30.563,33.152
316,2014/6/6,10:55:00,00-32.5300N,118-39.5100E,64,30.571,33.1377
317,2014/6/6,10:56:00,00-32.6200N,118-39.6900E,65,30.521,33.1489
318,2014/6/6,10:57:00,00-32.7100N,118-39.8700E,65,30.498,33.1446
319,2014/6/6,10:58:00,00-32.8000N,118-40.0700E,65,30.51,33.1925
320,2014/6/6,10:59:00,00-32.8800N,118-40.2500E,65,30.527,33.1958
321,2014/6/6,11:00:00,00-32.9700N,118-40.4400E,65,30.559,33.1952
322,2014/6/6,11:01:00,00-33.0500N,118-40.6200E,64,30.527,33.1651
323,2014/6/6,11:02:00,00-33.1400N,118-40.8000E,65,30.496,33.1247
324,2014/6/6,11:03:00,00-33.2200N,118-40.9800E,64,30.491,33.1262
325,2014/6/6,11:04:00,00-33.3100N,118-41.1700E,63,30.481,33.1064
326,2014/6/6,11:05:00,00-33.4000N,118-41.3500E,63,30.469,33.0948
327,2014/6/6,11:06:00,00-33.4900N,118-41.5300E,63,30.442,33.1042
328,2014/6/6,11:07:00,00-33.5800N,118-41.7100E,63,30.442,33.1598
329,2014/6/6,11:08:00,00-33.6800N,118-41.8900E,63,30.435,33.2067
330,2014/6/6,11:09:00,00-33.7700N,118-42.0600E,62,30.422,33.214
331,2014/6/6,11:10:00,00-33.8600N,118-42.2400E,63,30.391,33.2162
332,2014/6/6,11:11:00,00-33.9500N,118-42.4200E,62,30.412,33.2346
333,2014/6/6,11:12:00,00-34.0400N,118-42.6000E,64,30.385,33.232
334,2014/6/6,11:13:00,00-34.1300N,118-42.7700E,63,30.379,33.2185
335,2014/6/6,11:14:00,00-34.2200N,118-42.9500E,63,30.384,33.2491
336,2014/6/6,11:15:00,00-34.3100N,118-43.1300E,63,30.397,33.2458
337,2014/6/6,11:16:00,00-34.4000N,118-43.3000E,63,30.394,33.2356
338,2014/6/6,11:17:00,00-34.4900N,118-43.4800E,63,30.379,33.1902
339,2014/6/6,11:18:00,00-34.5800N,118-43.6600E,63,30.377,33.215
340,2014/6/6,11:19:00,00-34.6700N,118-43.8400E,62,30.383,33.2455
341,2014/6/6,11:20:00,00-34.7600N,118-44.0100E,62,30.389,33.2361
342,2014/6/6,11:21:00,00-34.8500N,118-44.1900E,63,30.391,33.2313
343,2014/6/6,11:22:00,00-34.9500N,118-44.3900E,63,30.395,33.2175
344,2014/6/6,11:23:00,00-35.0400N,118-44.5600E,62,30.398,33.2078
345,2014/6/6,11:24:00,00-35.1300N,118-44.7400E,63,30.385,33.1929
346,2014/6/6,11:25:00,00-35.2200N,118-44.9200E,62,30.385,33.186
347,2014/6/6,11:26:00,00-35.3200N,118-45.1000E,62,30.384,33.1941
348,2014/6/6,11:27:00,00-35.4100N,118-45.2700E,61,30.389,33.1839
349,2014/6/6,11:28:00,00-35.5000N,118-45.4500E,62,30.39,33.1745
350,2014/6/6,11:29:00,00-35.6000N,118-45.6300E,63,30.389,33.1537
351,2014/6/6,11:30:00,00-35.6900N,118-45.8100E,62,30.393,33.156
352,2014/6/6,11:31:00,00-35.7800N,118-45.9900E,63,30.396,33.1574
353,2014/6/6,11:32:00,00-35.8700N,118-46.1700E,63,30.396,33.162
354,2014/6/6,11:33:00,00-35.9600N,118-46.3500E,62,30.4,33.1991
355,2014/6/6,11:34:00,00-36.0600N,118-46.5300E,62,30.406,33.2034
356,2014/6/6,11:35:00,00-36.1500N,118-46.7100E,62,30.412,33.135
357,2014/6/6,11:36:00,00-36.2400N,118-46.8900E,62,30.417,33.1401
358,2014/6/6,11:37:00,00-36.3400N,118-47.0700E,62,30.423,33.1344
359,2014/6/6,11:38:00,00-36.4300N,118-47.2500E,62,30.426,33.1195
360,2014/6/6,11:39:00,00-36.5300N,118-47.4400E,63,30.435,33.1192
361,2014/6/6,11:40:00,00-36.6200N,118-47.6100E,62,30.448,33.1289
362,2014/6/6,11:41:00,00-36.7100N,118-47.7900E,63,30.452,33.1073
363,2014/6/6,11:42:00,00-36.8000N,118-47.9700E,62,30.461,33.0798
364,2014/6/6,11:43:00,00-36.9000N,118-48.1600E,62,30.452,33.0672
365,2014/6/6,11:44:00,00-36.9900N,118-48.3400E,63,30.457,33.0793
366,2014/6/6,11:45:00,00-37.0800N,118-48.5200E,63,30.452,33.0972
367,2014/6/6,11:46:00,00-37.1800N,118-48.7100E,62,30.451,33.1088
368,2014/6/6,11:47:00,00-37.2800N,118-48.8900E,62,30.441,33.1163
369,2014/6/6,11:48:00,00-37.3700N,118-49.0700E,61,30.435,33.1102
370,2014/6/6,11:49:00,00-37.4700N,118-49.2400E,61,30.426,33.1016
371,2014/6/6,11:50:00,00-37.5600N,118-49.4200E,62,30.437,33.0935
372,2014/6/6,11:51:00,00-37.6600N,118-49.6000E,61,30.437,33.0937
373,2014/6/6,11:52:00,00-37.7500N,118-49.7800E,62,30.463,33.0917
374,2014/6/6,11:53:00,00-37.8500N,118-49.9600E,61,30.452,33.0934
375,2014/6/6,11:54:00,00-37.9400N,118-50.1400E,61,30.451,33.0799
376,2014/6/6,11:55:00,00-38.0400N,118-50.3100E,61,30.443,33.0876
377,2014/6/6,11:56:00,00-38.1400N,118-50.4800E,61,30.404,33.0943
378,2014/6/6,11:57:00,00-38.2300N,118-50.6600E,61,30.393,33.0976
379,2014/6/6,11:58:00,00-38.3300N,118-50.8400E,61,30.36,33.128
380,2014/6/6,11:59:00,00-38.4200N,118-51.0100E,61,30.31,33.1277
381,2014/6/6,12:00:00,00-38.5200N,118-51.1800E,61,30.32,33.1791
382,2014/6/6,12:01:00,00-38.6200N,118-51.3600E,61,30.331,33.2113
383,2014/6/6,12:02:00,00-38.7100N,118-51.5300E,61,30.358,33.2128
384,2014/6/6,12:03:00,00-38.8100N,118-51.7100E,61,30.364,33.199
385,2014/6/6,12:04:00,00-38.9100N,118-51.8800E,61,30.325,33.1526
386,2014/6/6,12:05:00,00-39.0000N,118-52.0600E,61,30.321,33.1728
387,2014/6/6,12:06:00,00-39.1000N,118-52.2300E,60,30.318,33.1925
388,2014/6/6,12:07:00,00-39.2000N,118-52.4000E,61,30.32,33.2569
389,2014/6/6,12:08:00,00-39.3000N,118-52.5800E,60,30.343,33.1981
390,2014/6/6,12:09:00,00-39.3900N,118-52.7500E,60,30.362,33.1727
391,2014/6/6,12:10:00,00-39.4900N,118-52.9300E,60,30.396,33.1643
392,2014/6/6,12:11:00,00-39.6000N,118-53.1200E,60,30.431,33.1898
393,2014/6/6,12:12:00,00-39.7000N,118-53.2900E,60,30.526,33.1819
394,2014/6/6,12:13:00,00-39.8000N,118-53.4600E,59,30.561,33.2573
395,2014/6/6,12:14:00,00-39.9000N,118-53.6400E,60,30.559,33.5662
396,2014/6/6,12:15:00,00-40.0000N,118-53.8100E,59,30.57,33.6679
397,2014/6/6,12:16:00,00-40.1000N,118-53.9800E,59,30.573,33.8119
398,2014/6/6,12:17:00,00-40.2000N,118-54.1500E,60,30.575,33.8345
399,2014/6/6,12:18:00,00-40.3000N,118-54.3200E,60,30.521,33.9009
400,2014/6/6,12:19:00,00-40.3900N,118-54.4900E,60,30.484,33.9361
401,2014/6/6,12:20:00,00-40.4900N,118-54.6600E,60,30.509,33.9407
402,2014/6/6,12:21:00,00-40.5900N,118-54.8300E,60,30.478,33.9949
403,2014/6/6,12:22:00,00-40.6900N,118-55.0000E,59,30.447,34.039
404,2014/6/6,12:23:00,00-40.7900N,118-55.1600E,58,30.444,34.0414
405,2014/6/6,12:24:00,00-40.8900N,118-55.3200E,58,30.463,34.0424
406,2014/6/6,12:25:00,00-40.9900N,118-55.4900E,57,30.446,34.0521
407,2014/6/6,12:26:00,00-41.0900N,118-55.6500E,57,30.446,34.057
408,2014/6/6,12:27:00,00-41.2000N,118-55.8100E,56,30.462,34.0741
409,2014/6/6,12:28:00,00-41.3000N,118-55.9700E,56,30.466,34.0769
410,2014/6/6,12:29:00,00-41.4100N,118-56.1300E,56,30.451,34.0757
411,2014/6/6,12:30:00,00-41.5200N,118-56.2900E,55,30.432,34.0731
412,2014/6/6,12:31:00,00-41.6300N,118-56.4500E,54,30.394,34.071
413,2014/6/6,12:32:00,00-41.7400N,118-56.6000E,54,30.366,34.0695
414,2014/6/6,12:33:00,00-41.8500N,118-56.7600E,55,30.357,34.0672
415,2014/6/6,12:34:00,00-41.9600N,118-56.9100E,53,30.33,34.0647
416,2014/6/6,12:35:00,00-42.0900N,118-57.0700E,51,30.312,34.062
417,2014/6/6,12:36:00,00-42.2100N,118-57.2200E,51,30.314,34.0594
418,2014/6/6,12:37:00,00-42.3200N,118-57.3700E,51,30.287,34.0556
419,2014/6/6,12:38:00,00-42.4400N,118-57.5200E,51,30.321,34.0575
420,2014/6/6,12:39:00,00-42.5600N,118-57.6600E,51,30.229,34.0571
421,2014/6/6,12:40:00,00-42.6800N,118-57.8100E,51,30.266,34.0532
422,2014/6/6,12:41:00,00-42.8000N,118-57.9600E,51,30.353,34.0702
423,2014/6/6,12:42:00,00-42.9100N,118-58.1000E,51,30.363,34.055
424,2014/6/6,12:43:00,00-43.0300N,118-58.2500E,51,30.276,34.0372
425,2014/6/6,12:44:00,00-43.1500N,118-58.4000E,51,30.257,34.0416
426,2014/6/6,12:45:00,00-43.2700N,118-58.5400E,50,30.233,34.0659
427,2014/6/6,12:46:00,00-43.3900N,118-58.6900E,49,30.397,34.0664
428,2014/6/6,12:47:00,00-43.5200N,118-58.8300E,50,30.377,34.0605
429,2014/6/6,12:48:00,00-43.6400N,118-58.9800E,49,30.131,34.0374
430,2014/6/6,12:49:00,00-43.7600N,118-59.1200E,50,30.136,34.0519
431,2014/6/6,12:50:00,00-43.8800N,118-59.2700E,50,30.041,34.0911
432,2014/6/6,12:51:00,00-44.0100N,118-59.4200E,50,29.919,34.1038
433,2014/6/6,12:52:00,00-44.1300N,118-59.5700E,51,29.814,34.1145
434,2014/6/6,12:53:00,00-44.2500N,118-59.7100E,51,29.85,34.1371
435,2014/6/6,12:54:00,00-44.3600N,118-59.8600E,51,30.086,34.1468
436,2014/6/6,12:55:00,00-44.4800N,119-00.0100E,51,29.937,34.1367
437,2014/6/6,12:56:00,00-44.6000N,119-00.1500E,51,30.041,34.113
438,2014/6/6,12:57:00,00-44.7200N,119-00.3100E,51,29.892,34.1141
439,2014/6/6,12:58:00,00-44.8400N,119-00.4500E,51,29.855,34.1219
440,2014/6/6,12:59:00,00-44.9700N,119-00.6100E,49,29.957,34.1341
441,2014/6/6,13:00:00,00-45.0900N,119-00.7500E,47,30.047,34.1338
442,2014/6/6,13:01:00,00-45.2200N,119-00.8900E,46,29.944,34.102
443,2014/6/6,13:02:00,00-45.3500N,119-01.0200E,44,29.996,34.1131
444,2014/6/6,13:03:00,00-45.4900N,119-01.1500E,42,29.981,34.1185
445,2014/6/6,13:04:00,00-45.6300N,119-01.2600E,39,29.96,34.1147
446,2014/6/6,13:05:00,00-45.7800N,119-01.3800E,37,30.062,34.1089
447,2014/6/6,13:06:00,00-45.9300N,119-01.4900E,35,30.242,34.1051
448,2014/6/6,13:07:00,00-46.0800N,119-01.5900E,34,30.295,34.0964
449,2014/6/6,13:08:00,00-46.2400N,119-01.6900E,32,30.425,34.0875
450,2014/6/6,13:09:00,00-46.3900N,119-01.7900E,31,30.42,34.0747
451,2014/6/6,13:10:00,00-46.5500N,119-01.8800E,30,30.434,34.0708
452,2014/6/6,13:11:00,00-46.7200N,119-01.9800E,29,30.435,34.0713
453,2014/6/6,13:12:00,00-46.8700N,119-02.0700E,30,30.369,34.0722
454,2014/6/6,13:13:00,00-47.0200N,119-02.1500E,30,30.318,34.0725
455,2014/6/6,13:14:00,00-47.1800N,119-02.2500E,31,30.281,34.0705